{"data":{"norad_id":59740,"epoch":"2026-05-25T04:09:53.671968Z","epoch_age_seconds":50196,"freshness":"FRESH","line1":"1 59740U 24090L   26145.17353787  .00001378  00000+0  59591-4 0  9990","line2":"2 59740  43.0024 111.8699 0001101 250.6005 109.4728 15.27581574115133","mean_motion":15.27581574,"eccentricity":0.0001101,"inclination_deg":43.0024,"raan_deg":111.8699,"arg_perigee_deg":250.6005,"mean_anomaly_deg":109.4728,"bstar":5.9591e-5,"rev_number":11513,"period_min":94.266651582431,"perigee_km":482.2889668512,"apogee_km":483.79979899172,"semimajor_km":6861.1813829215,"source":"CELESTRAK","updated_at":"2026-05-25T13:38:19.052442Z"}}